| time (UTC) | temp C | wind direction | speed KPH | gust KPH | rain 1hr cm | rain 24hr cm | rain mn cm | humidity % | barometer mb |
| 20260906181541 | 37 | 296 | 4.8 | 17.7 | 0.00 | 0.03 | 0.00 | 38 | 1011.7 |
| 20260906180006 | 37 | 227 | 3.2 | 22.5 | 0.00 | 0.03 | 0.00 | 41 | 1012.0 |
| 20260906174533 | 37 | 218 | 6.4 | 14.5 | 0.00 | 0.03 | 0.00 | 42 | 1012.2 |
| 20260906173003 | 37 | 242 | 3.2 | 12.9 | 0.00 | 0.03 | 0.00 | 40 | 1012.6 |
| 20260906171529 | 37 | 178 | 4.8 | 19.3 | 0.00 | 0.03 | 0.00 | 40 | 1012.9 |
| 20260906164520 | 36 | 84 | 1.6 | 6.4 | 0.00 | 0.03 | 0.00 | 44 | 1013.3 |
| 20260906163048 | 36 | 188 | 0.0 | 11.3 | 0.00 | 0.03 | 0.00 | 46 | 1013.5 |
| 20260906161533 | 35 | 143 | 3.2 | 9.7 | 0.00 | 0.03 | 0.00 | 47 | 1013.6 |
| 20260906160043 | 35 | 177 | 0.0 | 6.4 | 0.00 | 0.03 | 0.00 | 47 | 1013.5 |
| 20260906154506 | 33 | 194 | 1.6 | 6.4 | 0.00 | 0.03 | 0.00 | 52 | 1013.6 |
| 20260906153042 | 33 | 102 | 1.6 | 6.4 | 0.00 | 0.03 | 0.00 | 57 | 1013.6 |
| 20260906151506 | 33 | 92 | 0.0 | 4.8 | 0.00 | 0.03 | 0.03 | 59 | 1013.5 |
| 20260906150040 | 32 | 186 | 1.6 | 6.4 | 0.00 | 0.03 | 0.03 | 64 | 1013.6 |
| 20260906144514 | 31 | 104 | 0.0 | 3.2 | 0.00 | 0.03 | 0.03 | 67 | 1013.7 |
| 20260906143041 | 30 | 38 | 0.0 | 3.2 | 0.00 | 0.03 | 0.03 | 67 | 1013.6 |
| 20260906141512 | 29 | 147 | 0.0 | 3.2 | 0.00 | 0.03 | 0.03 | 71 | 1013.7 |
| 20260906140046 | 27 | 147 | 1.6 | 3.2 | 0.00 | 0.03 | 0.03 | 73 | 1013.6 |
| 20260906134518 | 26 | 147 | 1.6 | 3.2 | 0.00 | 0.03 | 0.03 | 79 | 1013.4 |
| 20260906133059 | 25 | 147 | 0.0 | 0.0 | 0.00 | 0.03 | 0.03 | 84 | 1013.5 |
| 20260906131524 | 23 | 147 | 0.0 | 3.2 | 0.00 | 0.03 | 0.03 | 91 | 1013.5 |
| 20260906130105 | 22 | 147 | 0.0 | 3.2 | 0.00 | 0.03 | 0.03 | 96 | 1013.3 |
| 20260906124533 | 21 | 147 | 0.0 | 3.2 | 0.00 | 0.03 | 0.03 | 95 | 1013.2 |
| 20260906123016 | 21 | 147 | 0.0 | 1.6 | 0.00 | 0.03 | 0.03 | 95 | 1013.1 |
| 20260906121543 | 21 | 147 | 0.0 | 0.0 | 0.00 | 0.03 | 0.03 | 94 | 1012.9 |
| 20260906120019 | 21 | 147 | 0.0 | 1.6 | 0.00 | 0.03 | 0.03 | 94 | 1012.8 |
| 20260906114553 | 21 | 147 | 0.0 | 1.6 | 0.00 | 0.03 | 0.03 | 94 | 1012.7 |
| 20260906113021 | 21 | 147 | 0.0 | 0.0 | 0.00 | 0.03 | 0.03 | 93 | 1012.7 |
| 20260906111553 | 21 | 147 | 0.0 | 0.0 | 0.00 | 0.03 | 0.03 | 93 | 1012.7 |
| 20260906110024 | 21 | 147 | 0.0 | 1.6 | 0.00 | 0.03 | 0.03 | 92 | 1012.5 |
| 20260906104557 | 22 | 147 | 0.0 | 0.0 | 0.00 | 0.03 | 0.03 | 92 | 1012.5 |
| 20260906103025 | 22 | 147 | 1.6 | 3.2 | 0.00 | 0.03 | 0.03 | 92 | 1012.4 |
| 20260906101600 | 22 | 147 | 0.0 | 0.0 | 0.00 | 0.03 | 0.03 | 90 | 1012.2 |
| 20260906100033 | 22 | 147 | 0.0 | 3.2 | 0.00 | 0.03 | 0.03 | 90 | 1012.3 |
| 20260906094606 | 22 | 147 | 0.0 | 0.0 | 0.00 | 0.03 | 0.03 | 90 | 1012.2 |
| 20260906093029 | 22 | 147 | 0.0 | 1.6 | 0.00 | 0.03 | 0.03 | 90 | 1012.2 |
| 20260906091556 | 22 | 147 | 0.0 | 1.6 | 0.00 | 0.03 | 0.03 | 91 | 1012.0 |
| 20260906090027 | 23 | 147 | 0.0 | 3.2 | 0.00 | 0.03 | 0.03 | 91 | 1011.8 |
| 20260906084602 | 23 | 147 | 0.0 | 4.8 | 0.00 | 0.03 | 0.03 | 91 | 1011.7 |
| 20260906083036 | 23 | 227 | 0.0 | 3.2 | 0.00 | 0.03 | 0.03 | 88 | 1011.8 |
| 20260906081504 | 23 | 227 | 0.0 | 0.0 | 0.00 | 0.03 | 0.03 | 90 | 1011.9 |
| 20260906080041 | 23 | 227 | 0.0 | 3.2 | 0.03 | 0.03 | 0.03 | 88 | 1011.9 |
| 20260906074508 | 23 | 315 | 1.6 | 4.8 | 0.03 | 0.03 | 0.03 | 88 | 1012.0 |
| 20260906073035 | 23 | 355 | 3.2 | 8.0 | 0.03 | 0.03 | 0.03 | 88 | 1012.1 |
| 20260906071501 | 23 | 103 | 0.0 | 12.9 | 0.03 | 0.03 | 0.03 | 84 | 1012.1 |
| 20260906070029 | 24 | 146 | 0.0 | 6.4 | 0.00 | 0.00 | 0.00 | 83 | 1012.1 |
| 20260906064603 | 24 | 186 | 0.0 | 3.2 | 0.00 | 0.00 | 0.00 | 79 | 1012.1 |
| 20260906063036 | 24 | 186 | 1.6 | 4.8 | 0.00 | 0.00 | 0.00 | 79 | 1012.2 |
| 20260906061508 | 24 | 186 | 0.0 | 0.0 | 0.00 | 0.00 | 0.00 | 78 | 1012.1 |
| 20260906060044 | 25 | 186 | 1.6 | 4.8 | 0.00 | 0.00 | 0.00 | 78 | 1012.1 |
| 20260906054509 | 25 | 186 | 0.0 | 3.2 | 0.00 | 0.00 | 0.00 | 77 | 1012.1 |
| 20260906053044 | 25 | 186 | 1.6 | 3.2 | 0.00 | 0.00 | 0.00 | 76 | 1012.1 |
| 20260906051518 | 25 | 186 | 0.0 | 1.6 | 0.00 | 0.00 | 0.00 | 76 | 1011.9 |
| 20260906050052 | 25 | 186 | 0.0 | 3.2 | 0.00 | 0.00 | 0.00 | 75 | 1011.8 |
| 20260906044524 | 25 | 186 | 0.0 | 3.2 | 0.00 | 0.00 | 0.00 | 76 | 1011.8 |
| 20260906043059 | 25 | 186 | 0.0 | 3.2 | 0.00 | 0.00 | 0.00 | 75 | 1011.9 |
| 20260906041535 | 25 | 186 | 0.0 | 3.2 | 0.00 | 0.00 | 0.00 | 75 | 1011.9 |
| 20260906040004 | 25 | 186 | 1.6 | 4.8 | 0.00 | 0.00 | 0.00 | 75 | 1011.8 |
| 20260906034553 | 25 | 186 | 0.0 | 4.8 | 0.00 | 0.00 | 0.00 | 74 | 1011.8 |
| 20260906033005 | 26 | 186 | 3.2 | 6.4 | 0.00 | 0.00 | 0.00 | 72 | 1011.9 |
| 20260906031537 | 26 | 243 | 0.0 | 0.0 | 0.00 | 0.00 | 0.00 | 71 | 1011.7 |
| 20260906030004 | 27 | 243 | 0.0 | 0.0 | 0.00 | 0.00 | 0.00 | 70 | 1011.5 |
| 20260906024536 | 27 | 243 | 0.0 | 0.0 | 0.00 | 0.00 | 0.00 | 69 | 1011.5 |
| 20260906023100 | 27 | 243 | 0.0 | 3.2 | 0.00 | 0.00 | 0.00 | 67 | 1011.4 |
| 20260906021537 | 28 | 218 | 0.0 | 3.2 | 0.00 | 0.00 | 0.00 | 65 | 1011.1 |
| 20260906020059 | 28 | 218 | 0.0 | 0.0 | 0.00 | 0.00 | 0.00 | 64 | 1010.6 |
| 20260906014523 | 29 | 218 | 0.0 | 0.0 | 0.00 | 0.00 | 0.00 | 59 | 1010.3 |
| 20260906013049 | 30 | 218 | 0.0 | 0.0 | 0.00 | 0.00 | 0.00 | 58 | 1010.4 |
| 20260906011511 | 31 | 218 | 0.0 | 0.0 | 0.00 | 0.00 | 0.00 | 54 | 1010.2 |
| 20260906010045 | 32 | 218 | 0.0 | 0.0 | 0.00 | 0.00 | 0.00 | 51 | 1010.1 |
| 20260906004503 | 33 | 218 | 0.0 | 0.0 | 0.00 | 0.00 | 0.00 | 48 | 1010.0 |
| 20260906003038 | 35 | 218 | 0.0 | 4.8 | 0.00 | 0.00 | 0.00 | 44 | 1010.1 |
| 20260906001514 | 36 | 234 | 3.2 | 8.0 | 0.00 | 0.00 | 0.00 | 41 | 1010.1 |
| 20260906000043 | 37 | 232 | 3.2 | 8.0 | 0.00 | 0.00 | 0.00 | 39 | 1010.1 |
| 20260905234518 | 37 | 232 | 4.8 | 8.0 | 0.00 | 0.00 | 0.00 | 39 | 1010.2 |
| 20260905233051 | 37 | 250 | 1.6 | 6.4 | 0.00 | 0.00 | 0.00 | 39 | 1010.1 |
| 20260905231523 | 37 | 282 | 0.0 | 6.4 | 0.00 | 0.00 | 0.00 | 38 | 1010.1 |
| 20260905230054 | 37 | 319 | 4.8 | 9.7 | 0.00 | 0.00 | 0.00 | 38 | 1010.1 |
| 20260905224524 | 37 | 5 | 1.6 | 9.7 | 0.00 | 0.00 | 0.00 | 38 | 1010.0 |
| 20260905223057 | 37 | 13 | 0.0 | 6.4 | 0.00 | 0.00 | 0.00 | 38 | 1009.9 |
| 20260905221524 | 37 | 229 | 4.8 | 12.9 | 0.00 | 0.00 | 0.00 | 38 | 1010.0 |
| 20260905220059 | 37 | 159 | 3.2 | 12.9 | 0.00 | 0.00 | 0.00 | 39 | 1010.1 |
| 20260905214526 | 37 | 173 | 9.7 | 16.1 | 0.00 | 0.00 | 0.00 | 39 | 1010.2 |
| 20260905213058 | 37 | 102 | 4.8 | 12.9 | 0.00 | 0.00 | 0.00 | 39 | 1010.3 |
| 20260905211528 | 37 | 126 | 0.0 | 14.5 | 0.00 | 0.00 | 0.00 | 38 | 1010.4 |
| 20260905210117 | 37 | 92 | 3.2 | 9.7 | 0.00 | 0.00 | 0.00 | 39 | 1010.7 |
| 20260905204534 | 37 | 225 | 3.2 | 8.0 | 0.00 | 0.00 | 0.00 | 38 | 1011.0 |
| 20260905203001 | 38 | 255 | 4.8 | 11.3 | 0.00 | 0.00 | 0.00 | 38 | 1011.2 |
| 20260905201533 | 38 | 262 | 6.4 | 29.0 | 0.00 | 0.00 | 0.00 | 38 | 1011.5 |
| 20260905200127 | 37 | 173 | 4.8 | 9.7 | 0.00 | 0.00 | 0.00 | 39 | 1011.6 |
| 20260905194528 | 37 | 187 | 4.8 | 9.7 | 0.00 | 0.00 | 0.00 | 40 | 1011.9 |
| 20260905193058 | 37 | 90 | 1.6 | 9.7 | 0.00 | 0.00 | 0.00 | 40 | 1011.9 |
| 20260905191530 | 37 | 211 | 6.4 | 12.9 | 0.00 | 0.00 | 0.00 | 41 | 1012.1 |
| 20260905190002 | 36 | 194 | 8.0 | 16.1 | 0.00 | 0.00 | 0.00 | 43 | 1012.3 |
| 20260905184537 | 36 | 142 | 3.2 | 6.4 | 0.00 | 0.00 | 0.00 | 42 | 1012.5 |
| 20260905183100 | 36 | 166 | 6.4 | 14.5 | 0.00 | 0.00 | 0.00 | 43 | 1012.8 |